Location: Tauranga
(37.6860°S, 176.1670°E)
Time: 14:10:49
(UTC+13:00)

ADEOS Rocket - Pass Details

Date: 24 January 2019
Orbit: 859 x 1307 km, 98.7° (Epoch: 21 February)

Event Time Altitude Azimuth Distance (km) Brightness Sun altitude
Exits shadow 23:05:49 19° 328° (NNW) 1,993 4.4 -24.1°
Maximum altitude 23:09:02 33° 277° (W) 1,451 4.1 -24.5°
Drops below altitude 10° 23:13:58 10° 214° (SW) 2,524 6.2 -25.0°
Sets 23:16:37 0° 204° (SSW) 3,473 7.2 -25.3°
